Crane Lake, MN

3:13 AM CDT on March 29, 2017 (GMT -0500)
Crane Lake

Weather History for KCDD - December, 2013

Change the Weather History Date:

Sunday, December 22, 2013

  Actual Average Record
Temperature  
Mean Temperature -2 °F -  
Max Temperature 3 °F 16 °F 39 °F (2005)
Min Temperature -7 °F 1 °F -25 °F (2008)
Degree Days  
Heating Degree Days 67    
Moisture  
Dew Point -4 °F    
Average Humidity 84    
Maximum Humidity 92    
Minimum Humidity 78    
Precipitation  
Precipitation 0.00 in - - ()
Sea Level Pressure  
Sea Level Pressure 30.16 in    
Wind  
Wind Speed 3 mph (North)    
Max Wind Speed 7 mph    
Max Gust Speed -    
Visibility 4 miles    
Events Snow    
Averages and records for this station are not official NWS values.
T = Trace of Precipitation, MM = Missing Value Source: NWS Daily Summary

Daily Weather History Graph

Daily Weather History Graph

Search for Another Location

Airport or City:

Trip Planner

Search our weather history database for the weather conditions in past years. The results will help you decide how hot, cold, wet, or windy it might be!

Date:

Astronomy

Dec. 22, 2013 Rise Set
Actual Time 7:58 AM CST 4:18 PM CST
Civil Twilight 7:22 AM CST 4:55 PM CST
Nautical Twilight 6:42 AM CST 5:35 PM CST
Astronomical Twilight 6:04 AM CST 6:13 PM CST
Moon 9:54 PM CST (12/22) 10:34 AM CST (12/22)
Length of Visible Light 9h 33m
Length of Day
8h 19m
Waning Gibbous, 76% of the Moon is Illuminated
Dec 22
Waning Gibbous
Dec 25
Last Quarter
Jan 1
New
Jan 7
First Quarter
Jan 15
Full

Hourly Weather History & Observations

Time (CST) Temp. Windchill Dew Point Humidity Pressure Visibility Wind Dir Wind Speed Gust Speed Precip Events Conditions
12:06 AM 3.2 °F -4.2 °F 1.4 °F 92% 30.09 in 10.0 mi NNE 3.5 mph - N/A Snow Light Snow
12:26 AM 3.2 °F - -0.4 °F 85% 30.09 in 5.0 mi Calm Calm - N/A Snow Light Snow
12:46 AM 3.2 °F -4.2 °F -0.4 °F 85% 30.09 in 3.0 mi North 3.5 mph - N/A Snow Light Snow
1:06 AM 3.2 °F -4.2 °F -0.4 °F 85% 30.10 in 2.0 mi North 3.5 mph - N/A Snow Light Snow
1:26 AM 3.2 °F -4.2 °F -0.4 °F 85% 30.09 in 1.2 mi North 3.5 mph - N/A Snow Light Snow
1:46 AM 3.2 °F -6.2 °F -0.4 °F 85% 30.09 in 2.0 mi North 4.6 mph - N/A Snow Light Snow
2:06 AM 3.2 °F - -0.4 °F 85% 30.09 in 2.5 mi Calm Calm - N/A Snow Light Snow
2:26 AM 3.2 °F -4.2 °F -0.4 °F 85% 30.09 in 2.5 mi North 3.5 mph - N/A Snow Light Snow
2:46 AM 3.2 °F -4.2 °F -0.4 °F 85% 30.10 in 2.0 mi North 3.5 mph - N/A Snow Light Snow
3:06 AM 1.4 °F - -0.4 °F 92% 30.10 in 2.0 mi Calm Calm - N/A Snow Light Snow
3:26 AM 1.4 °F - -0.4 °F 92% 30.10 in 2.5 mi Calm Calm - N/A Snow Light Snow
3:46 AM 1.4 °F -8.3 °F -2.2 °F 85% 30.11 in 2.5 mi NNE 4.6 mph - N/A Snow Light Snow
4:06 AM 1.4 °F -6.2 °F -2.2 °F 85% 30.10 in 2.5 mi North 3.5 mph - N/A Snow Light Snow
4:26 AM 1.4 °F -8.3 °F -2.2 °F 85% 30.11 in 1.2 mi North 4.6 mph - N/A Snow Light Snow
4:46 AM 1.4 °F - -2.2 °F 85% 30.11 in 1.8 mi Calm Calm - N/A Snow Light Snow
5:06 AM 1.4 °F - -2.2 °F 85% 30.12 in 2.0 mi Calm Calm - N/A Snow Light Snow
5:26 AM 1.4 °F -8.3 °F -2.2 °F 85% 30.11 in 5.0 mi North 4.6 mph - N/A Snow Light Snow
5:46 AM 1.4 °F -6.2 °F -2.2 °F 85% 30.12 in 3.0 mi North 3.5 mph - N/A Snow Light Snow
6:06 AM 1.4 °F -6.2 °F -2.2 °F 85% 30.12 in 2.5 mi North 3.5 mph - N/A Snow Light Snow
6:26 AM -0.4 °F -10.4 °F -2.2 °F 92% 30.13 in 3.0 mi North 4.6 mph - N/A Snow Light Snow
6:46 AM -0.4 °F - -2.2 °F 92% 30.13 in 1.8 mi Calm Calm - N/A Snow Light Snow
7:06 AM -0.4 °F -8.3 °F -2.2 °F 92% 30.13 in 1.8 mi North 3.5 mph - N/A Snow Light Snow
7:26 AM -0.4 °F - -2.2 °F 92% 30.12 in 1.5 mi Calm Calm - N/A Snow Light Snow
7:46 AM -0.4 °F - -2.2 °F 92% 30.12 in 2.0 mi Calm Calm - N/A Snow Light Snow
8:06 AM -0.4 °F -10.4 °F -4.0 °F 85% 30.12 in 4.0 mi NNE 4.6 mph - N/A Snow Light Snow
8:26 AM -0.4 °F -10.4 °F -4.0 °F 85% 30.13 in 4.0 mi North 4.6 mph - N/A Snow Light Snow
8:46 AM -0.4 °F -12.0 °F -2.2 °F 92% 30.12 in 4.0 mi North 5.8 mph - N/A Snow Light Snow
9:06 AM -0.4 °F -8.3 °F -2.2 °F 92% 30.13 in 3.0 mi North 3.5 mph - N/A Snow Light Snow
9:26 AM -0.4 °F -8.3 °F -2.2 °F 92% 30.13 in 4.0 mi North 3.5 mph - N/A Snow Light Snow
9:46 AM 1.4 °F -8.3 °F -2.2 °F 85% 30.13 in 7.0 mi North 4.6 mph - N/A Snow Light Snow
10:06 AM 1.4 °F -6.2 °F -2.2 °F 85% 30.14 in 4.0 mi NNE 3.5 mph - N/A Snow Light Snow
10:26 AM 1.4 °F -6.2 °F -2.2 °F 85% 30.14 in 2.5 mi North 3.5 mph - N/A Snow Light Snow
10:46 AM 1.4 °F -6.2 °F -2.2 °F 85% 30.14 in 1.8 mi North 3.5 mph - N/A Snow Light Snow
11:06 AM 1.4 °F -8.3 °F -2.2 °F 85% 30.14 in 2.0 mi North 4.6 mph - N/A Snow Light Snow
11:26 AM 1.4 °F -8.3 °F -2.2 °F 85% 30.14 in 2.5 mi North 4.6 mph - N/A Snow Light Snow
11:46 AM 1.4 °F -11.3 °F -2.2 °F 85% 30.14 in 4.0 mi North 6.9 mph - N/A Snow Light Snow
12:06 PM 1.4 °F -6.2 °F -2.2 °F 85% 30.13 in 1.8 mi NNW 3.5 mph - N/A Snow Light Snow
12:26 PM 3.2 °F -4.2 °F -2.2 °F 78% 30.14 in 2.0 mi North 3.5 mph - N/A Snow Light Snow
12:46 PM 3.2 °F -7.8 °F -2.2 °F 78% 30.13 in 2.5 mi North 5.8 mph - N/A Snow Light Snow
1:06 PM 3.2 °F -6.2 °F -2.2 °F 78% 30.13 in 3.0 mi North 4.6 mph - N/A Snow Light Snow
1:26 PM 3.2 °F -6.2 °F -2.2 °F 78% 30.13 in 4.0 mi North 4.6 mph - N/A Snow Light Snow
1:46 PM 3.2 °F -6.2 °F -2.2 °F 78% 30.13 in 7.0 mi NNW 4.6 mph - N/A Snow Light Snow
2:06 PM 3.2 °F -7.8 °F -2.2 °F 78% 30.13 in 4.0 mi North 5.8 mph - N/A Snow Light Snow
2:26 PM 3.2 °F -6.2 °F -2.2 °F 78% 30.14 in 4.0 mi North 4.6 mph - N/A Snow Light Snow
2:46 PM 3.2 °F -6.2 °F -2.2 °F 78% 30.15 in 5.0 mi NNW 4.6 mph - N/A Snow Light Snow
3:06 PM 1.4 °F -6.2 °F -4.0 °F 78% 30.16 in 3.0 mi North 3.5 mph - N/A Snow Light Snow
3:26 PM -0.4 °F - -5.8 °F 78% 30.17 in 4.0 mi Calm Calm - N/A Snow Light Snow
3:46 PM -0.4 °F -8.3 °F -5.8 °F 78% 30.18 in 7.0 mi NNW 3.5 mph - N/A Snow Light Snow
4:06 PM -0.4 °F -8.3 °F -5.8 °F 78% 30.19 in 10.0 mi NNW 3.5 mph - N/A Snow Light Snow
4:26 PM -0.4 °F - -5.8 °F 78% 30.19 in 5.0 mi Calm Calm - N/A Snow Light Snow
4:46 PM -0.4 °F -10.4 °F -5.8 °F 78% 30.20 in 2.0 mi NNW 4.6 mph - N/A Snow Light Snow
5:06 PM -0.4 °F -10.4 °F -5.8 °F 78% 30.21 in 2.0 mi NNW 4.6 mph - N/A Snow Light Snow
5:26 PM -2.2 °F -10.4 °F -5.8 °F 85% 30.22 in 4.0 mi North 3.5 mph - N/A Snow Light Snow
5:46 PM -2.2 °F -15.6 °F -5.8 °F 85% 30.22 in 2.5 mi NNW 6.9 mph - N/A Snow Light Snow
6:06 PM -2.2 °F -14.2 °F -7.6 °F 78% 30.23 in 2.0 mi NNW 5.8 mph - N/A Snow Light Snow
6:26 PM -2.2 °F -12.5 °F -7.6 °F 78% 30.24 in 3.0 mi NNW 4.6 mph - N/A Snow Light Snow
6:46 PM -2.2 °F -12.5 °F -7.6 °F 78% 30.24 in 3.0 mi North 4.6 mph - N/A Snow Light Snow
7:06 PM -4.0 °F -14.6 °F -7.6 °F 85% 30.25 in 2.5 mi North 4.6 mph - N/A Snow Light Snow
7:26 PM -4.0 °F -12.4 °F -7.6 °F 85% 30.26 in 2.5 mi NNW 3.5 mph - N/A Snow Light Snow
7:46 PM -4.0 °F - -7.6 °F 85% 30.26 in 4.0 mi Calm Calm - N/A Snow Light Snow
8:06 PM -5.8 °F -14.5 °F -9.4 °F 84% 30.26 in 2.0 mi NNW 3.5 mph - N/A Snow Light Snow
8:26 PM -5.8 °F -16.7 °F -9.4 °F 84% 30.26 in 7.0 mi North 4.6 mph - N/A Snow Light Snow
8:46 PM -5.8 °F -14.5 °F -9.4 °F 84% 30.26 in 10.0 mi North 3.5 mph - N/A Snow Light Snow
9:06 PM -5.8 °F -14.5 °F -9.4 °F 84% 30.26 in 3.0 mi NNW 3.5 mph - N/A Snow Light Snow
9:26 PM -5.8 °F -14.5 °F -9.4 °F 84% 30.27 in 7.0 mi NNW 3.5 mph - N/A Snow Light Snow
9:46 PM -5.8 °F -14.5 °F -9.4 °F 84% 30.27 in 5.0 mi NNW 3.5 mph - N/A Snow Light Snow
10:06 PM -7.6 °F -16.5 °F -9.4 °F 92% 30.27 in 5.0 mi NNW 3.5 mph - N/A Snow Light Snow
10:26 PM -7.6 °F -16.5 °F -11.2 °F 84% 30.27 in 4.0 mi NNW 3.5 mph - N/A Snow Light Snow
10:46 PM -7.6 °F -16.5 °F -11.2 °F 84% 30.28 in 5.0 mi NNW 3.5 mph - N/A Snow Light Snow
11:06 PM -7.6 °F -16.5 °F -11.2 °F 84% 30.29 in 5.0 mi NNW 3.5 mph - N/A Snow Light Snow
11:26 PM -7.6 °F -16.5 °F -11.2 °F 84% 30.29 in 10.0 mi North 3.5 mph - N/A Snow Light Snow
11:46 PM -7.6 °F -16.5 °F -11.2 °F 84% 30.29 in 7.0 mi NNW 3.5 mph - N/A Snow Light Snow